| time (UTC) | temp F | wind direction | speed knots | gust knots | rain 1hr in | rain 24hr in | rain mn in | humidity % | barometer mb |
| 20260906223841 | 75 | 33 | 0.9 | 6.1 | 0.00 | 0.00 | 0.00 | 59 | 1008.0 |
| 20260906222829 | 75 | 340 | 0.9 | 8.7 | 0.00 | 0.00 | 0.00 | 59 | 1008.0 |
| 20260906221808 | 75 | 30 | 0.9 | 8.7 | 0.00 | 0.00 | 0.00 | 60 | 1008.1 |
| 20260906220808 | 75 | 24 | 0.0 | 2.6 | 0.00 | 0.00 | 0.00 | 61 | 1008.1 |
| 20260906215758 | 75 | 350 | 0.9 | 3.5 | 0.00 | 0.00 | 0.00 | 60 | 1008.3 |
| 20260906214729 | 75 | 51 | 0.0 | 6.1 | 0.00 | 0.00 | 0.00 | 62 | 1008.5 |
| 20260906213724 | 75 | 352 | 0.0 | 6.1 | 0.00 | 0.00 | 0.00 | 61 | 1008.8 |
| 20260906212738 | 75 | 1 | 0.0 | 1.7 | 0.00 | 0.00 | 0.00 | 62 | 1009.0 |
| 20260906211742 | 75 | 20 | 0.9 | 5.2 | 0.00 | 0.00 | 0.00 | 63 | 1009.0 |
| 20260906210733 | 74 | 12 | 0.0 | 0.9 | 0.00 | 0.00 | 0.00 | 62 | 1009.3 |
| 20260906205729 | 73 | 339 | 0.0 | 0.9 | 0.00 | 0.00 | 0.00 | 65 | 1009.5 |
| 20260906204742 | 72 | 341 | 0.9 | 3.5 | 0.00 | 0.00 | 0.00 | 66 | 1009.8 |
| 20260906202537 | 73 | 338 | 0.9 | 6.1 | 0.00 | 0.00 | 0.00 | 62 | 1010.1 |
| 20260906201531 | 73 | 20 | 0.9 | 4.3 | 0.00 | 0.00 | 0.00 | 64 | 1010.2 |
| 20260906200542 | 72 | 353 | 0.0 | 3.5 | 0.00 | 0.00 | 0.00 | 67 | 1010.2 |
| 20260906195532 | 71 | 338 | 0.9 | 3.5 | 0.00 | 0.00 | 0.00 | 66 | 1010.5 |
| 20260906193414 | 70 | 217 | 0.9 | 3.5 | 0.00 | 0.00 | 0.00 | 68 | 1010.7 |
| 20260906192424 | 70 | 217 | 0.9 | 3.5 | 0.00 | 0.00 | 0.00 | 68 | 1010.7 |
| 20260906191437 | 69 | 217 | 0.0 | 2.6 | 0.00 | 0.00 | 0.00 | 67 | 1011.0 |
| 20260906190436 | 68 | 217 | 0.0 | 3.5 | 0.00 | 0.00 | 0.00 | 72 | 1011.1 |
| 20260906185438 | 67 | 351 | 0.0 | 3.5 | 0.00 | 0.00 | 0.00 | 72 | 1011.3 |
| 20260906184416 | 67 | 342 | 0.0 | 3.5 | 0.00 | 0.00 | 0.00 | 73 | 1011.4 |
| 20260906183358 | 67 | 340 | 0.0 | 1.7 | 0.00 | 0.00 | 0.00 | 72 | 1011.6 |
| 20260906182354 | 65 | 338 | 0.0 | 2.6 | 0.00 | 0.00 | 0.00 | 76 | 1011.9 |
| 20260906180315 | 63 | 337 | 0.0 | 3.5 | 0.00 | 0.00 | 0.00 | 78 | 1012.5 |
| 20260906175312 | 62 | 337 | 0.9 | 2.6 | 0.00 | 0.00 | 0.00 | 80 | 1012.7 |
| 20260906174252 | 60 | 215 | 0.0 | 2.6 | 0.00 | 0.00 | 0.00 | 81 | 1013.0 |
| 20260906173252 | 60 | 215 | 0.0 | 0.0 | 0.00 | 0.00 | 0.00 | 82 | 1013.2 |
| 20260906171040 | 59 | 216 | 0.0 | 0.0 | 0.00 | 0.00 | 0.00 | 83 | 1013.6 |
| 20260906170049 | 58 | 216 | 0.0 | 0.0 | 0.00 | 0.00 | 0.00 | 85 | 1013.7 |
| 20260906165105 | 58 | 216 | 0.0 | 0.0 | 0.00 | 0.00 | 0.00 | 84 | 1013.9 |
| 20260906164048 | 57 | 216 | 0.0 | 0.9 | 0.00 | 0.00 | 0.00 | 85 | 1014.1 |
| 20260906163112 | 57 | 216 | 0.0 | 0.0 | 0.00 | 0.00 | 0.00 | 86 | 1014.1 |
| 20260906162120 | 56 | 216 | 0.0 | 0.0 | 0.00 | 0.00 | 0.00 | 87 | 1014.2 |
| 20260906161133 | 56 | 216 | 0.0 | 0.0 | 0.00 | 0.00 | 0.00 | 88 | 1014.4 |
| 20260906160134 | 55 | 216 | 0.0 | 0.0 | 0.00 | 0.00 | 0.00 | 88 | 1014.5 |
| 20260906154032 | 55 | 216 | 0.0 | 0.0 | 0.00 | 0.00 | 0.00 | 89 | 1014.5 |
| 20260906153006 | 54 | 216 | 0.0 | 0.0 | 0.00 | 0.00 | 0.00 | 89 | 1014.6 |
| 20260906151955 | 54 | 217 | 0.0 | 0.0 | 0.00 | 0.00 | 0.00 | 89 | 1014.6 |
| 20260906151003 | 53 | 217 | 0.0 | 0.0 | 0.00 | 0.00 | 0.00 | 89 | 1014.7 |
| 20260906145929 | 53 | 217 | 0.0 | 0.0 | 0.00 | 0.00 | 0.00 | 89 | 1014.8 |
| 20260906144947 | 53 | 217 | 0.0 | 2.6 | 0.00 | 0.00 | 0.00 | 88 | 1015.0 |
| 20260906141730 | 53 | 217 | 0.0 | 3.5 | 0.00 | 0.00 | 0.00 | 84 | 1015.4 |
| 20260906140749 | 53 | 217 | 0.0 | 3.5 | 0.00 | 0.00 | 0.00 | 84 | 1015.4 |
| 20260906135727 | 52 | 217 | 0.0 | 3.5 | 0.00 | 0.00 | 0.00 | 86 | 1015.1 |
| 20260906134729 | 52 | 217 | 0.0 | 1.7 | 0.00 | 0.00 | 0.00 | 87 | 1014.7 |
| 20260906133728 | 52 | 217 | 0.0 | 0.0 | 0.00 | 0.00 | 0.00 | 87 | 1014.6 |
| 20260906132723 | 52 | 217 | 0.0 | 0.0 | 0.00 | 0.00 | 0.00 | 88 | 1014.6 |
| 20260906131720 | 51 | 217 | 0.0 | 0.0 | 0.00 | 0.00 | 0.00 | 88 | 1014.3 |
| 20260906130737 | 51 | 217 | 0.0 | 0.0 | 0.00 | 0.00 | 0.00 | 88 | 1014.1 |
| 20260906124705 | 50 | 217 | 0.0 | 0.0 | 0.00 | 0.00 | 0.00 | 88 | 1014.1 |
| 20260906123630 | 50 | 217 | 0.0 | 0.0 | 0.00 | 0.00 | 0.00 | 88 | 1013.8 |
| 20260906121510 | 51 | 217 | 0.0 | 0.0 | 0.00 | 0.00 | 0.00 | 87 | 1014.2 |
| 20260906120507 | 51 | 217 | 0.0 | 0.0 | 0.00 | 0.00 | 0.00 | 87 | 1014.0 |
| 20260906115455 | 51 | 217 | 0.0 | 0.0 | 0.00 | 0.00 | 0.00 | 87 | 1014.0 |
| 20260906114422 | 51 | 217 | 0.0 | 0.0 | 0.00 | 0.00 | 0.00 | 87 | 1014.0 |
| 20260906113409 | 51 | 19 | 0.0 | 0.0 | 0.00 | 0.00 | 0.00 | 87 | 1014.0 |
| 20260906112427 | 51 | 21 | 0.0 | 0.0 | 0.00 | 0.00 | 0.00 | 87 | 1014.1 |
| 20260906111403 | 51 | 20 | 0.0 | 0.0 | 0.00 | 0.00 | 0.00 | 87 | 1014.3 |
| 20260906110402 | 51 | 20 | 0.0 | 0.0 | 0.00 | 0.00 | 0.00 | 87 | 1014.2 |
| 20260906103136 | 52 | 9 | 0.0 | 0.0 | 0.00 | 0.00 | 0.00 | 86 | 1013.9 |
| 20260906102148 | 53 | 9 | 0.0 | 0.0 | 0.00 | 0.00 | 0.00 | 85 | 1013.8 |
| 20260906101154 | 53 | 3 | 0.0 | 0.0 | 0.00 | 0.00 | 0.00 | 85 | 1013.6 |
| 20260906100154 | 53 | 2 | 0.0 | 0.0 | 0.00 | 0.00 | 0.00 | 85 | 1014.0 |
| 20260906095135 | 53 | 5 | 0.0 | 0.0 | 0.00 | 0.00 | 0.00 | 85 | 1013.9 |
| 20260906094152 | 53 | 0 | 0.0 | 0.0 | 0.00 | 0.00 | 0.00 | 85 | 1013.2 |
| 20260906093123 | 54 | 357 | 0.0 | 0.0 | 0.00 | 0.00 | 0.00 | 83 | 1013.6 |
| 20260906092100 | 54 | 353 | 0.0 | 0.0 | 0.00 | 0.00 | 0.00 | 82 | 1013.7 |
| 20260906085959 | 55 | 350 | 0.0 | 0.0 | 0.00 | 0.00 | 0.00 | 81 | 1013.5 |
| 20260906085001 | 56 | 350 | 0.0 | 0.0 | 0.00 | 0.00 | 0.00 | 80 | 1013.7 |
| 20260906083930 | 56 | 347 | 0.0 | 0.0 | 0.00 | 0.00 | 0.00 | 79 | 1013.8 |
| 20260906082940 | 56 | 346 | 0.0 | 0.0 | 0.00 | 0.00 | 0.00 | 79 | 1014.0 |
| 20260906082002 | 57 | 347 | 0.0 | 0.0 | 0.00 | 0.00 | 0.00 | 79 | 1014.1 |
| 20260906080952 | 57 | 347 | 0.0 | 0.0 | 0.00 | 0.00 | 0.00 | 77 | 1014.2 |
| 20260906075954 | 57 | 345 | 0.0 | 0.0 | 0.00 | 0.00 | 0.00 | 76 | 1014.3 |
| 20260906075014 | 57 | 344 | 0.0 | 0.0 | 0.00 | 0.00 | 0.00 | 75 | 1014.5 |
| 20260906073943 | 58 | 344 | 0.0 | 0.0 | 0.00 | 0.00 | 0.00 | 75 | 1014.6 |
| 20260906073000 | 58 | 343 | 0.0 | 0.0 | 0.00 | 0.00 | 0.00 | 73 | 1014.5 |
| 20260906071927 | 59 | 342 | 0.0 | 0.0 | 0.00 | 0.00 | 0.00 | 71 | 1014.6 |
| 20260906065820 | 60 | 342 | 0.0 | 0.0 | 0.00 | 0.00 | 0.00 | 70 | 1014.6 |
| 20260906064807 | 60 | 342 | 0.0 | 2.6 | 0.00 | 0.00 | 0.00 | 70 | 1014.5 |
| 20260906063811 | 60 | 341 | 0.9 | 1.7 | 0.00 | 0.00 | 0.00 | 67 | 1014.3 |
| 20260906062740 | 60 | 342 | 0.0 | 1.7 | 0.00 | 0.00 | 0.00 | 66 | 1014.5 |
| 20260906061754 | 60 | 342 | 0.0 | 5.2 | 0.00 | 0.00 | 0.00 | 65 | 1014.4 |
| 20260906060733 | 60 | 342 | 0.0 | 5.2 | 0.00 | 0.00 | 0.00 | 65 | 1014.4 |
| 20260906054623 | 60 | 341 | 0.0 | 0.0 | 0.00 | 0.00 | 0.00 | 65 | 1014.4 |
| 20260906052514 | 59 | 344 | 0.0 | 3.5 | 0.00 | 0.00 | 0.00 | 65 | 1014.5 |
| 20260906051510 | 59 | 343 | 0.0 | 0.0 | 0.00 | 0.00 | 0.00 | 65 | 1014.4 |
| 20260906050506 | 60 | 342 | 0.0 | 0.0 | 0.00 | 0.00 | 0.00 | 64 | 1014.5 |
| 20260906045509 | 61 | 342 | 0.0 | 0.0 | 0.00 | 0.00 | 0.00 | 61 | 1014.4 |
| 20260906043348 | 62 | 338 | 0.0 | 3.5 | 0.00 | 0.00 | 0.00 | 57 | 1014.3 |
| 20260906042404 | 62 | 338 | 0.0 | 3.5 | 0.00 | 0.00 | 0.00 | 56 | 1014.2 |
| 20260906041405 | 63 | 338 | 0.0 | 0.0 | 0.00 | 0.00 | 0.00 | 54 | 1014.2 |
| 20260906040401 | 64 | 339 | 0.0 | 0.9 | 0.00 | 0.00 | 0.00 | 53 | 1014.1 |
| 20260906035424 | 64 | 338 | 0.0 | 0.0 | 0.00 | 0.00 | 0.00 | 51 | 1014.1 |
| 20260906034438 | 65 | 338 | 0.0 | 3.5 | 0.00 | 0.00 | 0.00 | 50 | 1013.9 |
| 20260906033407 | 65 | 338 | 0.9 | 3.5 | 0.00 | 0.00 | 0.00 | 48 | 1013.8 |
| 20260906032403 | 65 | 339 | 0.0 | 2.6 | 0.00 | 0.00 | 0.00 | 49 | 1013.8 |
| 20260906031407 | 65 | 338 | 0.0 | 1.7 | 0.00 | 0.00 | 0.00 | 49 | 1013.8 |
| 20260906030345 | 65 | 338 | 0.0 | 0.0 | 0.00 | 0.00 | 0.00 | 48 | 1013.5 |
| 20260906025408 | 65 | 339 | 0.0 | 1.7 | 0.00 | 0.00 | 0.00 | 48 | 1013.4 |
| 20260906024419 | 65 | 338 | 0.0 | 0.0 | 0.00 | 0.00 | 0.00 | 49 | 1013.4 |
| 20260906023411 | 65 | 339 | 0.0 | 0.0 | 0.00 | 0.00 | 0.00 | 49 | 1013.2 |
| 20260906022350 | 66 | 339 | 0.0 | 0.0 | 0.00 | 0.00 | 0.00 | 47 | 1013.2 |
| 20260906021407 | 66 | 339 | 0.0 | 0.0 | 0.00 | 0.00 | 0.00 | 46 | 1013.1 |
| 20260906020408 | 67 | 339 | 0.0 | 0.0 | 0.00 | 0.00 | 0.00 | 44 | 1013.0 |
| 20260906014241 | 70 | 338 | 0.0 | 0.0 | 0.00 | 0.00 | 0.00 | 41 | 1012.8 |
| 20260906013222 | 71 | 338 | 0.0 | 0.0 | 0.00 | 0.00 | 0.00 | 40 | 1012.8 |
| 20260906012204 | 72 | 338 | 0.0 | 0.0 | 0.00 | 0.00 | 0.00 | 37 | 1012.6 |
| 20260906010023 | 74 | 338 | 0.0 | 1.7 | 0.00 | 0.00 | 0.00 | 39 | 1012.7 |
| 20260906003828 | 75 | 338 | 0.0 | 1.7 | 0.00 | 0.00 | 0.00 | 39 | 1012.6 |
| 20260906002804 | 74 | 338 | 0.0 | 2.6 | 0.00 | 0.00 | 0.00 | 38 | 1012.5 |
| 20260906001823 | 74 | 338 | 0.0 | 2.6 | 0.00 | 0.00 | 0.00 | 40 | 1012.5 |
| 20260906000758 | 74 | 338 | 0.0 | 6.1 | 0.00 | 0.00 | 0.00 | 39 | 1012.5 |
| 20260905235734 | 74 | 338 | 0.0 | 1.7 | 0.00 | 0.00 | 0.00 | 39 | 1012.5 |
| 20260905234708 | 75 | 339 | 0.0 | 0.0 | 0.00 | 0.00 | 0.00 | 39 | 1012.4 |
| 20260905233720 | 75 | 232 | 0.0 | 6.1 | 0.00 | 0.00 | 0.00 | 40 | 1012.4 |
| 20260905232729 | 75 | 106 | 0.9 | 4.3 | 0.00 | 0.00 | 0.00 | 40 | 1012.2 |
| 20260905231729 | 75 | 92 | 0.0 | 1.7 | 0.00 | 0.00 | 0.00 | 40 | 1012.4 |
| 20260905230732 | 76 | 86 | 0.0 | 5.2 | 0.00 | 0.00 | 0.00 | 40 | 1012.4 |
| 20260905225744 | 75 | 97 | 0.0 | 0.0 | 0.00 | 0.00 | 0.00 | 41 | 1012.5 |
| 20260905224736 | 75 | 228 | 0.9 | 7.0 | 0.00 | 0.00 | 0.00 | 40 | 1012.5 |